sat.trackr.live / text

‹ back to catalog

STARLINK-34769

NORAD 65094 · 2025-167S

PAYLOAD ACTIVE UNKNOWN

§ Identity

Operator
Country
US
Launch date
2025-08-04
Launch site
AFETR
Launch vehicle
Mass (kg)
RCS (m²)

Purposes: comms

External: N2YO · Heavens-Above · Gunter

§ Orbital elements

Epoch: 2026-05-24T23:20:55.739904Z

Period
93.38 min
Inclination
53.1590°
Eccentricity
0.0001452
Mean motion
15.42163408 rev/d
Perigee alt
438.7 km
Apogee alt
440.7 km
Semi-major
6,817.9 km
B*
1.0520e-3
RAAN
29.8774°
Arg perigee
311.9875°
Mean anomaly
48.1007°
Rev number
4,518

§ Raw data

STARLINK-347691 65094U 25167S   26144.97286736  .00045646  00000+0  10520-2 0  99942 65094  53.1590  29.8774 0001452 311.9875  48.1007 15.42163408 45184

JSON: /api/v1/satellites/65094 · /tle

For live sub-satellite position, see the globe view (requires WebGL).

§ Visibility from observer

Set your observer location to see the next 7 days of passes ≥ 10°. The values pass through the URL so the page stays shareable.

No JS? Fill the form by hand. The geolocation button needs JavaScript.